Home > Weather > Brisbane > Past weeks

Flag for Australia Past Weather in Brisbane, Queensland, Australia — Yesterday and Last 2 Weeks

Now
70 °F

Sunny.


Feels Like: 70 °F
Forecast: 38 / 66 °F
Wind: 17 mph from West

Location: Brisbane Airport M. O

Current Time: Jul 1, 2016 at 4:27:45 PM

Latest Report: Jul 1, 2016 at 4:00 PM


Visibility: 10 mi

Pressure: 30.04 "Hg

Humidity: 31%

Dew Point: 37 °F

Location of BrisbaneLocation

Past Weather in Brisbane — Graph

°F

Brisbane Temperature Yesterday

Maximum temperature yesterday: 70 °F (at 2:00 PM)
Minimum temperature yesterday: 46 °F (at 3:00 AM)
Average temperature yesterday: 58 °F

High & Low Weather Summary for the Past Weeks

 TemperatureHumidityPressure
High73 °F (Jun 24, 11:30 AM)100% (Jun 18, 1:30 AM)30.30 "Hg (Jun 18, 1:30 AM)
Low41 °F (Jun 26, 4:00 AM)24% (Jun 25, 12:30 PM)29.71 "Hg (Jun 20, 1:00 AM)
Average60 °F68%30.02 "Hg
* Reported Jun 16 3:00 PM — Jul 1 3:00 PM, Brisbane, Weather by CustomWeather, © 2016

Note: Actual official high and low records may vary slightly from our data, if they occured in-between our weather recording intervals... More about our weather records

Advertising

Brisbane Weather History for the Previous 24 Hours

Scroll right to see more
 ConditionsComfort  
Time TempWeatherWind HumidityBarometerVisibility
3:00 PM
Fri, Jul 1
72 °FSunny.17 mph29%30.04 "Hg10 mi
2:30 PM72 °FSunny.15 mph27%30.04 "Hg10 mi
2:00 PM72 °FSunny.12 mph27%30.04 "Hg10 mi
1:30 PM72 °FSunny.16 mph27%30.04 "Hg10 mi
1:00 PM72 °FSunny.13 mph29%30.04 "Hg10 mi
12:30 PM70 °FSunny.16 mph31%30.07 "Hg10 mi
12:00 PM68 °FSunny.17 mph30%30.09 "Hg10 mi
11:30 AM70 °FSunny.17 mph29%30.09 "Hg10 mi
11:00 AM68 °FSunny.18 mph28%30.09 "Hg10 mi
10:30 AM68 °FSunny.17 mph33%30.12 "Hg10 mi
10:00 AM66 °FSunny.12 mph43%30.12 "Hg10 mi
9:30 AM64 °FSunny.7 mph56%30.12 "Hg10 mi
9:00 AM63 °FSunny.7 mph68%30.12 "Hg10 mi
8:30 AM61 °FSunny.7 mph77%30.12 "Hg10 mi
8:00 AM59 °FSunny.6 mph88%30.12 "Hg10 mi
7:00 AM52 °FFog.No wind100%30.12 "HgN/A
6:00 AM52 °FFog.2 mph100%30.09 "HgN/A
5:30 AM54 °FClear.5 mph94%30.09 "Hg10 mi
5:00 AM52 °FPassing clouds.5 mph94%30.09 "HgN/A
4:00 AM54 °FClear.7 mph94%30.07 "Hg10 mi
3:30 AM55 °FMostly cloudy.No wind94%30.07 "HgN/A
3:00 AM55 °FClear.No wind94%30.09 "Hg10 mi
2:00 AM55 °FPartly cloudy.No wind94%30.09 "HgN/A
1:30 AM57 °FClear.6 mph88%30.09 "Hg10 mi
1:00 AM55 °FClear.5 mph88%30.09 "Hg10 mi
12:00 AM57 °FClear.5 mph88%30.09 "Hg10 mi
11:30 PM
Thu, Jun 30
59 °FPassing clouds.7 mph82%30.09 "HgN/A
11:00 PM59 °FMostly cloudy.7 mph82%30.09 "HgN/A
10:00 PM57 °FPassing clouds.8 mph88%30.12 "HgN/A
9:30 PM59 °FPartly cloudy.5 mph82%30.12 "HgN/A
9:00 PM57 °FPassing clouds.3 mph94%30.12 "HgN/A
8:30 PM59 °FPartly cloudy.7 mph94%30.15 "HgN/A
8:00 PM59 °FClear.2 mph94%30.15 "Hg10 mi
7:30 PM59 °FPassing clouds.6 mph88%30.15 "HgN/A
7:00 PM59 °FPassing clouds.7 mph88%30.12 "HgN/A
6:30 PM57 °FPassing clouds.7 mph94%30.12 "HgN/A
6:00 PM59 °FPassing clouds.7 mph82%30.12 "HgN/A
5:30 PM63 °FPassing clouds.5 mph73%30.12 "HgN/A
5:00 PM63 °FPassing clouds.No wind73%30.12 "HgN/A
4:30 PM64 °FPassing clouds.6 mph68%30.12 "HgN/A
4:00 PM66 °FPassing clouds.8 mph64%30.12 "HgN/A
Weather by CustomWeather, © 2016

See weather overviewHow to use our weather pages